• In Deutschland
  • Länderverzeichnis
  • Für 7 Tage
  • Wassertemperatur
  • Satellitenkarten
  • Wetterkarte
  • Widgets
  • user-avatar
    Anmelden

    Stündliche Wetter Pocitelj

    Heute, 21 Oktober, Sonntag

    Zeit Temperatur Niederschläge Wind Luftdruck Luftfeuchtigkeit
    00:00 +13°C° 0 mm 3 m/S 752 mmHg 79%
    01:00 +13°C° 0 mm 3 m/S 751 mmHg 80%
    02:00 +13°C° 0 mm 3 m/S 751 mmHg 81%
    03:00 +12°C° 0 mm 3 m/S 751 mmHg 82%
    04:00 +12°C° 0 mm 3 m/S 751 mmHg 83%
    05:00 +12°C° 0 mm 3 m/S 751 mmHg 81%
    06:00 +13°C° 0 mm 3 m/S 751 mmHg 79%
    07:00 +13°C° 0 mm 3 m/S 751 mmHg 77%
    08:00 +14°C° 0 mm 4 m/S 751 mmHg 72%
    09:00 +15°C° 0 mm 4 m/S 751 mmHg 66%
    10:00 +17°C° 0 mm 4 m/S 750 mmHg 60%
    11:00 +17°C° 0.1 mm 4 m/S 750 mmHg 59%
    12:00 +17°C° 0.1 mm 4 m/S 750 mmHg 58%
    13:00 +17°C° 0.1 mm 4 m/S 750 mmHg 57%
    14:00 +17°C° 0 mm 4 m/S 750 mmHg 58%
    15:00 +15°C° 0 mm 4 m/S 750 mmHg 59%
    16:00 +15°C° 0 mm 4 m/S 749 mmHg 60%
    17:00 +14°C° 0.1 mm 4 m/S 750 mmHg 63%
    18:00 +13°C° 0.1 mm 4 m/S 750 mmHg 65%
    19:00 +12°C° 0.1 mm 4 m/S 750 mmHg 68%
    20:00 +12°C° 0 mm 4 m/S 750 mmHg 68%
    21:00 +12°C° 0 mm 4 m/S 750 mmHg 69%
    22:00 +12°C° 0 mm 4 m/S 750 mmHg 69%
    23:00 +11°C° 0 mm 4 m/S 750 mmHg 70%

    Morgen, 22 Oktober, Montag

    Zeit Temperatur Niederschläge Wind Luftdruck Luftfeuchtigkeit
    00:00 +11°C° 0 mm 4 m/S 750 mmHg 71%
    01:00 +10°C° 0 mm 4 m/S 750 mmHg 72%
    02:00 +10°C° 0 mm 4 m/S 750 mmHg 72%
    03:00 +10°C° 0 mm 4 m/S 750 mmHg 73%
    04:00 +10°C° 0 mm 4 m/S 750 mmHg 73%
    05:00 +10°C° 0 mm 4 m/S 750 mmHg 72%
    06:00 +10°C° 0 mm 4 m/S 750 mmHg 72%
    07:00 +10°C° 0 mm 4 m/S 750 mmHg 71%
    08:00 +12°C° 0 mm 4 m/S 750 mmHg 65%
    09:00 +14°C° 0 mm 4 m/S 749 mmHg 59%
    10:00 +17°C° 0 mm 4 m/S 749 mmHg 53%
    11:00 +18°C° 0 mm 4 m/S 749 mmHg 51%
    12:00 +19°C° 0 mm 3 m/S 749 mmHg 48%
    13:00 +20°C° 0 mm 3 m/S 748 mmHg 45%
    14:00 +19°C° 0 mm 3 m/S 748 mmHg 49%
    15:00 +19°C° 0 mm 3 m/S 748 mmHg 52%
    16:00 +18°C° 0 mm 3 m/S 748 mmHg 55%
    17:00 +17°C° 0 mm 3 m/S 749 mmHg 60%
    18:00 +16°C° 0 mm 3 m/S 749 mmHg 65%
    19:00 +13°C° 0 mm 3 m/S 749 mmHg 69%
    20:00 +13°C° 0 mm 3 m/S 750 mmHg 72%
    21:00 +12°C° 0 mm 3 m/S 750 mmHg 74%
    22:00 +12°C° 0 mm 3 m/S 750 mmHg 76%
    23:00 +12°C° 0 mm 3 m/S 750 mmHg 77%

    übermorgen, 23 Oktober, Dienstag

    Zeit Temperatur Niederschläge Wind Luftdruck Luftfeuchtigkeit
    00:00 +12°C° 0 mm 4 m/S 750 mmHg 78%
    01:00 +12°C° 0 mm 4 m/S 750 mmHg 79%
    02:00 +12°C° 0 mm 4 m/S 749 mmHg 79%
    03:00 +12°C° 0 mm 4 m/S 749 mmHg 79%
    04:00 +12°C° 0 mm 4 m/S 749 mmHg 78%
    05:00 +12°C° 0 mm 4 m/S 749 mmHg 77%
    06:00 +13°C° 0 mm 5 m/S 749 mmHg 76%
    07:00 +13°C° 0 mm 5 m/S 749 mmHg 75%
    08:00 +15°C° 0 mm 5 m/S 750 mmHg 69%
    09:00 +16°C° 0 mm 5 m/S 750 mmHg 62%
    10:00 +19°C° 0 mm 6 m/S 750 mmHg 55%
    11:00 +19°C° 0 mm 5 m/S 750 mmHg 53%
    12:00 +20°C° 0 mm 5 m/S 750 mmHg 51%
    13:00 +21°C° 0 mm 4 m/S 749 mmHg 49%
    14:00 +20°C° 0 mm 4 m/S 749 mmHg 53%
    15:00 +19°C° 0 mm 4 m/S 749 mmHg 56%
    16:00 +18°C° 0 mm 4 m/S 749 mmHg 60%
    17:00 +17°C° 0 mm 4 m/S 749 mmHg 66%
    18:00 +14°C° 0 mm 3 m/S 749 mmHg 72%
    19:00 +13°C° 0 mm 3 m/S 749 mmHg 78%
    20:00 +12°C° 0 mm 3 m/S 749 mmHg 79%
    21:00 +12°C° 0 mm 3 m/S 749 mmHg 80%
    22:00 +11°C° 0 mm 3 m/S 749 mmHg 82%
    23:00 +11°C° 0 mm 3 m/S 749 mmHg 82%

    24 Oktober, Mittwoch

    Zeit Temperatur Niederschläge Wind Luftdruck Luftfeuchtigkeit
    00:00 +11°C° 0 mm 3 m/S 749 mmHg 82%
    01:00 +10°C° 0 mm 3 m/S 748 mmHg 82%
    02:00 +10°C° 0 mm 3 m/S 748 mmHg 80%
    03:00 +10°C° 0 mm 3 m/S 747 mmHg 78%
    04:00 +10°C° 0 mm 3 m/S 747 mmHg 76%
    05:00 +11°C° 0 mm 3 m/S 747 mmHg 71%
    06:00 +12°C° 0 mm 2 m/S 747 mmHg 66%
    07:00 +12°C° 0 mm 2 m/S 747 mmHg 61%
    08:00 +14°C° 0 mm 3 m/S 747 mmHg 54%
    09:00 +18°C° 0 mm 3 m/S 746 mmHg 47%
    10:00 +20°C° 0 mm 3 m/S 746 mmHg 39%
    11:00 +21°C° 0 mm 4 m/S 746 mmHg 40%
    12:00 +21°C° 0 mm 4 m/S 745 mmHg 40%
    13:00 +22°C° 0 mm 5 m/S 745 mmHg 40%
    14:00 +21°C° 0 mm 5 m/S 745 mmHg 44%
    15:00 +21°C° 0 mm 5 m/S 745 mmHg 47%
    16:00 +20°C° 0 mm 4 m/S 744 mmHg 50%
    17:00 +19°C° 0 mm 4 m/S 745 mmHg 54%
    18:00 +18°C° 0 mm 4 m/S 745 mmHg 58%
    19:00 +17°C° 0 mm 4 m/S 745 mmHg 62%
    20:00 +15°C° 0 mm 4 m/S 746 mmHg 65%
    21:00 +14°C° 0 mm 4 m/S 746 mmHg 68%
    22:00 +13°C° 0 mm 4 m/S 747 mmHg 71%
    23:00 +13°C° 0 mm 4 m/S 747 mmHg 72%

    25 Oktober, Donnerstag

    Zeit Temperatur Niederschläge Wind Luftdruck Luftfeuchtigkeit
    00:00 +12°C° 0 mm 4 m/S 747 mmHg 73%
    01:00 +11°C° 0 mm 4 m/S 748 mmHg 74%
    02:00 +10°C° 0 mm 4 m/S 748 mmHg 74%
    03:00 +10°C° 0 mm 3 m/S 748 mmHg 74%
    04:00 +9°C° 0 mm 3 m/S 749 mmHg 74%
    05:00 +9°C° 0 mm 3 m/S 749 mmHg 73%
    06:00 +9°C° 0 mm 3 m/S 749 mmHg 72%
    07:00 +9°C° 0 mm 3 m/S 750 mmHg 71%
    08:00 +11°C° 0 mm 3 m/S 750 mmHg 66%
    09:00 +12°C° 0 mm 3 m/S 750 mmHg 60%
    10:00 +14°C° 0 mm 4 m/S 750 mmHg 55%
    11:00 +15°C° 0 mm 4 m/S 750 mmHg 53%
    12:00 +18°C° 0 mm 4 m/S 750 mmHg 51%
    13:00 +19°C° 0 mm 4 m/S 750 mmHg 49%
    14:00 +18°C° 0 mm 3 m/S 749 mmHg 53%
    15:00 +18°C° 0 mm 3 m/S 749 mmHg 56%
    16:00 +18°C° 0 mm 3 m/S 749 mmHg 60%
    17:00 +16°C° 0 mm 2 m/S 749 mmHg 66%
    18:00 +15°C° 0 mm 2 m/S 749 mmHg 72%
    19:00 +13°C° 0 mm 1 m/S 750 mmHg 78%
    20:00 +13°C° 0 mm 1 m/S 750 mmHg 78%
    21:00 +13°C° 0 mm 1 m/S 750 mmHg 78%
    22:00 +13°C° 0 mm 1 m/S 750 mmHg 78%
    23:00 +12°C° 0 mm 1 m/S 750 mmHg 78%

    26 Oktober, Freitag

    Zeit Temperatur Niederschläge Wind Luftdruck Luftfeuchtigkeit
    00:00 +12°C° 0 mm 1 m/S 750 mmHg 78%
    01:00 +12°C° 0 mm 2 m/S 750 mmHg 78%
    02:00 +12°C° 0 mm 2 m/S 749 mmHg 79%
    03:00 +12°C° 0 mm 2 m/S 749 mmHg 80%
    04:00 +12°C° 0 mm 2 m/S 749 mmHg 80%
    05:00 +12°C° 0 mm 2 m/S 749 mmHg 81%
    06:00 +12°C° 0 mm 2 m/S 749 mmHg 81%
    07:00 +12°C° 0 mm 3 m/S 749 mmHg 82%
    08:00 +14°C° 0 mm 3 m/S 749 mmHg 76%
    09:00 +17°C° 0 mm 3 m/S 749 mmHg 70%
    10:00 +19°C° 0 mm 4 m/S 749 mmHg 63%
    11:00 +19°C° 0 mm 4 m/S 748 mmHg 63%
    12:00 +20°C° 0 mm 4 m/S 748 mmHg 62%
    13:00 +20°C° 0 mm 5 m/S 748 mmHg 62%
    14:00 +20°C° 0 mm 5 m/S 747 mmHg 66%
    15:00 +19°C° 0 mm 5 m/S 747 mmHg 70%
    16:00 +17°C° 0 mm 5 m/S 747 mmHg 74%
    17:00 +16°C° 0 mm 5 m/S 747 mmHg 78%
    18:00 +15°C° 0 mm 5 m/S 747 mmHg 82%
    19:00 +14°C° 0 mm 5 m/S 747 mmHg 86%
    20:00 +14°C° 0 mm 5 m/S 747 mmHg 82%
    21:00 +15°C° 0 mm 5 m/S 748 mmHg 78%
    22:00 +15°C° 0 mm 5 m/S 748 mmHg 75%
    23:00 +15°C° 0.2 mm 6 m/S 747 mmHg 77%
    Mehr zeigen